Terminal Aerodrome Forecast
Issued by NWS

Home | Current Version | Previous Version | Text Only | Print | Product List | Glossary On
Versions: 1 2 3 4 5 6 7 8 9 10 11 12 13 14
000
FTUS45 KABQ 252300
TAFLVS
TAF
KLVS 252324Z 2600/2624 24014KT P6SM BKN100
     FM260200 21011KT P6SM BKN090
     FM260500 20007KT P6SM BKN060
     FM261300 VRB05KT P6SM BKN050
     FM261800 06010KT P6SM VCSH SCT025 BKN040=

USA.gov is the U.S. government's official web portal to all federal, state and local government web resources and services.